1st Responders/1st Detectors/Storm Spotters Weather Summary for Whitley County, KY

Forecast Maps


Reg. NEXRAD Animation


National Fire Danger: Day 1 & 2 Map

Current NWS Watch/Warnings

SPC Convective Day 1 Outlook


Day 2 Outlook

(Click images to enlarge|Page will refresh every 5 minutes)
UK Ag. Weather Center Desktop Severe Weather Service[HERE]
Whitley County, KY Hazardous Weather Outlook Webcast
(9 AM to 9 PM Mon-Fri)
[Fast]
[Dial-up]


UKAWC 1st Detectors/1st Responders Precision Weather Forecast For WHITLEY County, Kentucky
(based on the NWS County Digital Forecast)

ISSUED AT 20:00 UTC ON SATURDAY JAN 20 2018
DAY SATURDAY
EDT 3HR 5P 6P 7P
MAX/MIN -- -- 49°
TEMP 49° 47° 47°
SKY COVER 90% 84% 77%
Clouds
DEW PT 38° 38° 38°
RH 65% 68% 70%
POP 12HR -- -- --
RAIN/SNOW (liq.equ) -- -- --
SNOWFALL -- -- --
WIND SPEED(MPH) 8 8 8
WIND Gust(MPH) 14 14 14
WIND DIR SW S S
DEW -- Lgt Dew Lgt Dew
HeatIndex 49 47 47
Rain -- -- --
Rain Showers -- -- --
WIND CHILL -- -- --
SPRAY COND
DRY COND
LIVESTOCK COLDSTRESS



DAY SUNDAY MONDAY TUESDAY WEDNESDAY THURSDAY FRIDAY
EDT 6HR 8P 9P 10P 11P MIDN 1A 2A 3A 4A 5A 6A 7A 8A 9A 10A 11A NOON 1P 2P 3P 4P 5P 6P 7P 8P 9P 10P 11P MIDN 1A 2A 3A 4A 5A 8A 11A 2P 5P 8P 2A 8A 2P 8P 2A 8A 2P 8P 2A 8A 2P 8P 2A 8A 2P 8P
MAX/MIN -- -- -- -- -- -- -- -- -- -- -- -- 38° -- -- -- -- -- -- -- -- -- -- 56° -- -- -- -- -- -- -- -- -- -- 41° -- -- 61° -- -- 36° 43° -- -- 25° 45° -- -- 23° 49° -- -- 29° 54° --
TEMP 45° 43° 43° 41° 40° 40° 40° 38° 40° 40° 40° 38° 38° 41° 43° 47° 49° 52° 54° 56° 56° 56° 54° 52° 49° 47° 47° 47° 45° 45° 43° 43° 43° 43° 43° 52° 61° 58° 58° 45° 36° 43° 40° 29° 27° 43° 38° 29° 25° 49° 41° 31° 31° 54° 43°
SKY COVER 71% 74% 77% 80% 75% 71% 66% 66% 71% 77% 76% 76% 76% 77% 78% 79% 79% 80% 80% 77% 73% 69% 62% 55% 48% 48% 49% 50% 54% 61% 64% 64% 64% 64% 74% 59% 92% 97% 88% 63% 67% 62% 51% 38% 27% 19% 24% 21% 28% 21% 22% 22% 25% 31% 49%
Clouds
DEW PT 38° 38° 38° 38° 38° 38° 38° 38° 38° 38° 38° 38° 38° 38° 40° 40° 41° 43° 43° 45° 45° 45° 45° 45° 43° 43° 43° 43° 43° 41° 41° 41° 40° 40° 40° 43° 47° 49° 47° 38° 31° 29° 27° 25° 23° 27° 25° 23° 22° 27° 27° 25° 22° 25° 29°
RH 76% 78% 82% 85% 89% 92% 92% 96% 92% 92% 92% 96% 95% 88% 86% 79% 73% 71% 69% 66% 67% 66% 71% 76% 82% 85% 85% 86% 89% 89% 92% 96% 92% 92% 92% 71% 60% 69% 66% 79% 85% 55% 61% 81% 88% 50% 61% 80% 84% 43% 54% 75% 65% 33% 55%
POP 12HR 7% -- -- -- -- -- -- -- -- -- -- -- 9% -- -- -- -- -- -- -- -- -- -- -- 14% -- -- -- -- -- -- -- -- -- 5% -- -- -- 87% -- 80% -- 13% -- 6% -- 4% -- 4% -- 2% -- 3% -- 5%
RAIN/SNOW (liq.equ) 0.00in -- -- -- -- -- 0.00in -- -- -- -- -- 0.00in -- -- -- -- -- 0.00in -- -- -- -- -- 0.00in -- -- -- -- -- 0.00in -- -- -- 0.00in -- 0.00in -- 0.20in -- -- -- -- -- -- -- -- -- -- -- -- -- -- -- --
SNOWFALL 0in -- -- -- -- -- 0in -- -- -- -- -- 0in -- -- -- -- -- 0in -- -- -- -- -- 0in -- -- -- -- -- 0in -- -- -- 0in -- 0in -- 0in -- -- -- -- -- -- -- -- -- -- -- -- -- -- -- --
WIND SPEED(MPH) 8 8 7 7 7 6 6 6 6 6 6 6 6 6 7 7 7 7 8 8 8 8 7 7 7 6 5 5 5 5 7 7 7 7 8 10 14 14 13 10 10 14 8 5 5 6 6 1 1 2 2 2 2 6 6
WIND DIR S S S S S S S S S S S S S S S S S S S S S S S S S S S S S S S S S S S S S S S SW SW W W W SW W W W S SW S S S S SE
HeatIndex 40 38 38 36 36 35 35 34 35 35 35 34 34 38 40 47 49 52 54 56 56 56 54 52 49 47 47 47 45 42 40 38 38 38 37 52 61 58 58 39 27 37 34 25 21 40 33 29 25 49 40 28 28 54 40
Rain -- -- -- -- -- -- -- -- -- -- -- -- -- -- -- -- -- -- -- -- -- -- -- -- -- -- -- -- -- -- -- -- -- -- -- -- Chance -- -- -- -- -- -- -- -- -- -- -- -- -- -- -- -- -- --
Rain Showers -- -- -- -- -- -- -- -- -- -- -- -- -- -- -- -- -- -- -- -- -- -- -- -- -- -- -- -- -- -- -- -- -- -- -- -- -- Definite Definite Chance -- -- -- -- -- -- -- -- -- -- -- -- -- -- --
WIND CHILL 41° 38° 39° 36° 35° 36° 36° 34° 36° 36° 36° 34° 34° 37° 39° -- -- -- -- -- -- -- -- -- -- -- -- -- 43° 43° 39° 39° 39° 39° 38° -- -- -- -- 40° 29° 36° 35° 24° 22° 39° 34° -- -- -- -- -- -- -- 39°
SPRAY COND
DRY COND
LIVESTOCK COLDSTRESS

Click on individual weather variable above in left-hand column (ie., TEMP, RH, QPF 12HR) to view state forecast maps






NWS 48 Hr. Forecast Maps,

Regional Hourly Observations For WHITLEY County, Kentucky
Issued at 300 PM EST SAT JAN 20 2018
SOUTHEAST KENTUCKY
  
CITY           SKY/WX    TMP DP  RH WIND       PRES   REMARKS
JACKSON        CLOUDY    52  38  58 VRB5      30.12F                  
LONDON         PTSUNNY   56  36  47 SW14G21   30.13F                  
SOMERSET       FAIR      55  34  44 W15       30.16S                  
MIDDLESBORO    PTSUNNY   53  32  45 S9        30.17F                  
MONTICELLO     FAIR      57  34  41 SW20      30.16F                  


Current NOWCAST not available:
Nowcasts are not issued routinely during fair weather. Only when
precipitation or other significant weather is occuring in this county will these
forecasts be issued. Currently, there is no short term forecast in effect.


Fire Weather Forecast For WHITLEY County, KY
Provided by the National Weather Service:

Issued at: Sat Jan 20 15:05:01 EST 2018

611 AM EST Sat Jan 20 2018

.TODAY...
Sky/weather.........Cloudy. 
Max Temperature.....46-51. 
   24 hr trend......2 degrees warmer. 
Min Humidity........53-63 percent. 
   24 hr trend......42 percent wetter. 
Wind (20 ft)........Southwest winds 5 to 10 mph. 
LAL.................1. 
Haines Index........2 or very low potential for large plume 
                    dominated fire growth. 
Mixing Height.......900 ft agl. 
Transport Winds.....Southwest around 10 mph. 
Dispersion Index....10. 
Vent Rate...........Poor (10400 knot-ft). 
ADI.................14. 
LVORI...............4. 
Prob of precip......10 percent. 
QPF (inches)........None. 

.TONIGHT...
Sky/weather.........Mostly cloudy. 
Min Temperature.....37-42. 
   24 hr trend......7 degrees warmer. 
Max Humidity........99 percent. 
   24 hr trend......35 percent wetter. 
Wind (20 ft)........South winds 5 to 10 mph. 
LAL.................1. 
Haines Index........2 or very low potential for large plume 
                    dominated fire growth. 
ADI.................5. 
LVORI...............7. 
Prob of precip......10 percent. 
QPF (inches)........None. 

.SUNDAY...
Sky/weather.........Mostly cloudy. 
Max Temperature.....53-58. 
   24 hr trend......9 degrees warmer. 
Min Humidity........61-71 percent. 
   24 hr trend......1 percent wetter. 
Wind (20 ft)........South winds 5 to 10 mph. 
LAL.................1. 
Haines Index........3 or very low potential for large plume 
                    dominated fire growth. 
Mixing Height.......800 ft agl. 
Transport Winds.....South 5 to 10 mph. 
Dispersion Index.... 6. 
Vent Rate...........Poor (6100 knot-ft). 
ADI.................10. 
LVORI...............6. 
Prob of precip......10 percent. 
QPF (inches)........None. 


SPC's Fire Weather Web Tool (Excellent!), SPC's Fire Weather Outlooks, NWS Fire Weather WEB, Fire Danger Class Map,
Keetch-Byram Drought Index, ROMAN Web, Haines Index ,
WFAS's 10-hr Dead Fuel Moist., WFAS's 100-hr Dead Fuel Moist., Probablity of Ignition, Visual blackness Map, Palmer Drought Index, HPC's Rainfall Forecast Maps


Hazardous Weather Outlook For WHITLEY County, Kentucky
311 PM EST Sat Jan 20 2018

 DAY ONE  Tonight.

No hazardous weather is expected at this time.

 DAYS TWO THROUGH SEVEN  Sunday through Friday.

No hazardous weather is expected at this time.

 SPOTTER INFORMATION STATEMENT  

Spotter activation is not anticipated.

Latest WHITLEY County, Kentucky Watches, Warnings and Advisories.
Additional Drought Info.: UKAWC Drought Page, Kentucky Drought Watch


7-Day Forecast For WHITLEY County, KY

TONIGHT
Mostly cloudy. Areas of drizzle late. Lows around 40. Light winds.

SUNDAY
Partly sunny. Highs in the upper 50s. Light winds.

SUNDAY NIGHT
Partly cloudy in the evening then becoming mostly cloudy. Lows in the mid 40s. Light winds.

MONDAY
Partly sunny with a chance of showers in the morning, then showers in the afternoon. Highs in the lower 60s. South winds around 10 mph. Chance of rain 90 percent.

MONDAY NIGHT
Rain showers in the evening, then a chance of rain showers late. Lows in the upper 30s. Southwest winds around 10 mph. Chance of rain 80 percent.

TUESDAY
Mostly cloudy with a 20 percent chance of rain showers. Highs in the mid 40s.

TUESDAY NIGHT
Partly cloudy. Lows in the mid 20s.

WEDNESDAY
Sunny. Highs in the mid 40s.

WEDNESDAY NIGHT
Mostly clear. Lows in the mid 20s.

THURSDAY
Sunny. Highs in the upper 40s.

THURSDAY NIGHT
Mostly clear. Lows in the upper 20s.

FRIDAY
Sunny. Highs in the mid 50s.

FRIDAY NIGHT
Partly cloudy. Lows in the mid 30s.

SATURDAY
Mostly cloudy with a 50 percent chance of rain showers. Highs in the mid 50s.

Ag Weather Center, Department of Biosystems & Agricultural Engineering, University of Kentucky